Location: Unspecified
(0.0000°N, 0.0000°E)
Time: 02:27:15
(UTC+00:00)

BEESAT 3 - Visible Passes

Search period start: 22 January 2018 00:00
Search period end: 01 February 2018 00:00
Orbit: 490 x 529 km, 64.9° (Epoch: 20 January)

Date Brightness Start Highest point End Pass type
(mag) Time Alt. Az. Time Alt. Az. Time Alt. Az.
22 Jan ? 19:00:19 10° NNE 19:03:23 23° ENE 19:06:27 10° ESE visible
22 Jan ? 20:40:22 10° WSW 20:40:38 10° WSW 20:40:53 10° WSW visible
23 Jan ? 18:42:40 10° NNE 18:45:42 23° ENE 18:48:43 10° ESE visible
23 Jan ? 20:22:12 10° W 20:22:56 10° WSW 20:23:40 10° WSW visible
24 Jan ? 20:04:14 10° W 20:05:14 11° WSW 20:06:14 10° SW visible
25 Jan ? 19:46:20 10° W 19:47:32 11° WSW 19:48:45 10° SW visible
26 Jan ? 19:28:27 10° W 19:29:50 12° WSW 19:31:14 10° SW visible
27 Jan ? 05:40:40 10° SSE 05:43:41 21° ESE 05:46:42 10° ENE visible
27 Jan ? 19:10:35 10° W 19:12:07 12° WSW 19:13:40 10° SW visible
28 Jan ? 05:23:01 10° SSE 05:25:59 20° ESE 05:28:57 10° ENE visible
28 Jan ? 18:52:45 10° W 18:54:26 13° WSW 18:56:06 10° SW visible
29 Jan ? 05:05:22 10° SSE 05:08:16 20° ESE 05:11:11 10° ENE visible
29 Jan ? 18:34:55 10° W 18:36:43 13° WSW 18:38:31 10° SW visible
30 Jan ? 04:47:43 10° SSE 04:50:34 19° ESE 04:53:25 10° ENE visible
31 Jan ? 04:30:04 10° SSE 04:32:51 18° ESE 04:35:38 10° ENE visible
